QPF
0.04 0.05 0.05 0.05 0.05 0.07 0.08 0.08 0.09 0.13 0.19 0.25 0.24 0.19 0.15 0.10 0.09 0.12 0.12 0.11 0.11 0.13 0.12 0.07 0.04 0.02 0.01 0.02 0.01 0.01 0.00 0.00 0.00 0.00 0.00 0.00 0.00 0.00 0.00 0.00 0.00 0.00 0.00
0.05 0.05 0.05 0.04 0.04 0.07 0.08 0.08 0.07 0.09 0.13 0.16 0.17 0.17 0.13 0.10 0.08 0.04 0.04 0.07 0.08 0.09 0.11 0.10 0.06 0.03 0.01 0.01 0.02 0.01 0.00 0.00 0.00 0.00 0.00 0.00 0.00 0.00 0.00 0.00 0.00 0.00 0.00
0.04 0.05 0.04 0.03 0.04 0.06 0.09 0.10 0.09 0.11 0.13 0.13 0.12 0.12 0.12 0.09 0.07 0.06 0.04 0.04 0.06 0.06 0.07 0.08 0.06 0.04 0.02 0.01 0.02 0.02 0.01 0.00 0.00 0.00 0.00 0.00 0.00 0.00 0.00 0.00 0.00 0.00 0.00
0.03 0.03 0.03 0.03 0.04 0.05 0.08 0.11 0.11 0.11 0.14 0.16 0.14 0.09 0.08 0.08 0.06 0.06 0.05 0.05 0.05 0.07 0.08 0.06 0.06 0.04 0.02 0.01 0.02 0.03 0.02 0.01 0.00 0.00 0.00 0.00 0.00 0.00 0.00 0.00 0.00 0.00 0.00
0.02 0.02 0.03 0.03 0.04 0.05 0.07 0.10 0.11 0.11 0.11 0.15 0.15 0.12 0.08 0.06 0.04 0.03 0.03 0.03 0.04 0.06 0.08 0.06 0.05 0.04 0.03 0.02 0.01 0.02 0.03 0.01 0.00 0.00 0.00 0.00 0.00 0.00 0.00 0.00 0.00 0.00 0.00
0.02 0.02 0.03 0.03 0.04 0.05 0.06 0.08 0.10 0.10 0.10 0.11 0.11 0.10 0.08 0.05 0.03 0.02 0.01 0.01 0.01 0.03 0.06 0.05 0.03 0.02 0.02 0.01 0.01 0.01 0.02 0.02 0.01 0.00 0.00 0.00 0.00 0.00 0.00 0.00 0.00 0.00 0.00
0.01 0.02 0.03 0.03 0.03 0.04 0.05 0.07 0.07 0.08 0.08 0.08 0.07 0.07 0.06 0.05 0.04 0.02 0.01 0.00 0.00 0.01 0.02 0.04 0.03 0.03 0.02 0.01 0.01 0.01 0.01 0.02 0.02 0.01 0.00 0.00 0.00 0.00 0.00 0.00 0.00 0.00 0.00
0.01 0.01 0.01 0.01 0.01 0.02 0.03 0.05 0.05 0.05 0.06 0.07 0.07 0.07 0.06 0.05 0.04 0.03 0.02 0.01 0.01 0.00 0.01 0.01 0.01 0.02 0.02 0.01 0.01 0.01 0.00 0.00 0.01 0.01 0.01 0.00 0.00 0.00 0.00 0.00 0.00 0.00 0.00
0.01 0.01 0.01 0.01 0.00 0.01 0.01 0.02 0.03 0.04 0.04 0.04 0.04 0.04 0.04 0.03 0.02 0.02 0.01 0.01 0.01 0.00 0.00 0.00 0.00 0.01 0.01 0.01 0.01 0.00 0.00 0.00 0.00 0.01 0.02 0.01 0.00 0.00 0.00 0.00 0.00 0.00 0.00
0.00 0.00 0.01 0.01 0.01 0.01 0.01 0.01 0.01 0.01 0.02 0.01 0.01 0.01 0.01 0.01 0.01 0.00 0.00 0.00 0.00 0.00 0.00 0.00 0.00 0.01 0.01 0.01 0.01 0.00 0.00 0.00 0.00 0.00 0.01 0.01 0.01 0.00 0.00 0.00 0.00 0.00 0.00
0.00 0.00 0.00 0.00 0.00 0.00 0.01 0.00 0.00 0.00 0.01 0.01 0.01 0.00 0.00 0.00 0.00 0.00 0.00 0.00 0.00 0.00 0.00 0.00 0.00 0.00 0.01 0.01 0.01 0.01 0.00 0.00 0.00 0.00 0.00 0.00 0.01 0.01 0.00 0.00 0.00 0.00 0.00
0.00 0.00 0.00 0.00 0.00 0.00 0.00 0.00 0.00 0.00 0.00 0.00 0.00 0.00 0.00 0.00 0.00 0.00 0.00 0.00 0.00 0.00 0.00 0.00 0.00 0.00 0.00 0.00 0.00 0.00 0.00 0.00 0.00 0.00 0.00 0.00 0.00 0.00 0.01 0.00 0.00 0.00 0.00
0.00 0.00 0.00 0.00 0.00 0.00 0.00 0.00 0.00 0.00 0.00 0.00 0.00 0.00 0.00 0.00 0.00 0.00 0.00 0.00 0.00 0.00 0.00 0.00 0.00 0.00 0.00 0.00 0.00 0.00 0.00 0.00 0.00 0.00 0.00 0.00 0.00 0.00 0.00 0.00 0.00 0.00 0.00
0.00 0.00 0.00 0.00 0.00 0.00 0.00 0.01 0.00 0.00 0.00 0.00 0.00 0.00 0.00 0.01 0.00 0.00 0.00 0.00 0.00 0.00 0.00 0.00 0.00 0.00 0.00 0.00 0.00 0.00 0.00 0.00 0.00 0.00 0.00 0.00 0.00 0.00 0.00 0.00 0.00 0.00 0.00
0.00 0.00 0.00 0.00 0.00 0.00 0.00 0.01 0.00 0.00 0.00 0.00 0.00 0.00 0.00 0.00 0.00 0.00 0.00 0.00 0.00 0.00 0.00 0.00 0.00 0.00 0.00 0.00 0.00 0.00 0.00 0.00 0.00 0.00 0.00 0.00 0.00 0.00 0.00 0.00 0.00 0.00 0.00
0.01 0.00 0.00 0.00 0.00 0.00 0.00 0.00 0.00 0.00 0.00 0.00 0.00 0.01 0.01 0.01 0.00 0.00 0.00 0.00 0.00 0.00 0.00 0.00 0.00 0.00 0.00 0.00 0.00 0.00 0.00 0.00 0.00 0.00 0.00 0.00 0.00 0.00 0.00 0.00 0.00 0.00 0.00
0.01 0.00 0.00 0.00 0.00 0.00 0.00 0.00 0.01 0.00 0.00 0.00 0.01 0.01 0.01 0.01 0.01 0.00 0.00 0.00 0.00 0.00 0.00 0.00 0.00 0.00 0.00 0.00 0.00 0.00 0.00 0.00 0.00 0.00 0.00 0.00 0.00 0.00 0.00 0.00 0.00 0.00 0.00
0.01 0.01 0.00 0.00 0.00 0.00 0.00 0.00 0.00 0.01 0.01 0.00 0.01 0.01 0.01 0.01 0.01 0.01 0.01 0.00 0.00 0.00 0.00 0.00 0.00 0.00 0.00 0.00 0.00 0.00 0.00 0.00 0.00 0.00 0.00 0.00 0.00 0.00 0.00 0.00 0.00 0.00 0.00
0.01 0.01 0.01 0.01 0.01 0.01 0.01 0.01 0.01 0.01 0.01 0.00 0.00 0.01 0.01 0.01 0.02 0.02 0.01 0.00 0.00 0.01 0.00 0.00 0.00 0.00 0.00 0.00 0.00 0.00 0.00 0.00 0.00 0.00 0.00 0.00 0.00 0.00 0.00 0.00 0.00 0.00 0.00
0.00 0.01 0.01 0.01 0.01 0.01 0.01 0.01 0.01 0.01 0.01 0.01 0.01 0.01 0.01 0.01 0.01 0.01 0.01 0.01 0.01 0.01 0.01 0.00 0.00 0.00 0.00 0.00 0.00 0.00 0.00 0.00 0.00 0.00 0.00 0.00 0.00 0.01 0.01 0.01 0.01 0.01 0.00
0.00 0.00 0.00 0.00 0.01 0.01 0.01 0.01 0.01 0.01 0.01 0.01 0.00 0.00 0.01 0.01 0.00 0.00 0.01 0.02 0.01 0.01 0.01 0.01 0.01 0.00 0.01 0.00 0.00 0.00 0.00 0.00 0.00 0.00 0.00 0.00 0.01 0.01 0.01 0.01 0.01 0.01 0.01
0.00 0.00 0.00 0.00 0.00 0.00 0.00 0.00 0.00 0.01 0.01 0.00 0.00 0.00 0.01 0.01 0.01 0.00 0.01 0.02 0.01 0.01 0.01 0.01 0.01 0.01 0.01 0.01 0.00 0.01 0.01 0.01 0.01 0.00 0.00 0.00 0.01 0.01 0.01 0.01 0.01 0.02 0.02
0.00 0.00 0.00 0.00 0.00 0.00 0.00 0.00 0.00 0.00 0.00 0.00 0.00 0.00 0.00 0.01 0.01 0.01 0.01 0.02 0.02 0.01 0.01 0.01 0.01 0.01 0.01 0.01 0.01 0.01 0.01 0.01 0.01 0.01 0.00 0.01 0.01 0.01 0.01 0.01 0.01 0.01 0.01
0.00 0.00 0.00 0.00 0.00 0.00 0.00 0.00 0.00 0.00 0.00 0.00 0.00 0.00 0.00 0.01 0.01 0.01 0.01 0.02 0.01 0.01 0.01 0.01 0.01 0.01 0.01 0.01 0.01 0.01 0.01 0.01 0.01 0.01 0.01 0.01 0.01 0.00 0.00 0.00 0.01 0.01 0.01
0.00 0.00 0.00 0.00 0.00 0.00 0.00 0.00 0.00 0.00 0.00 0.00 0.00 0.01 0.01 0.01 0.01 0.01 0.01 0.01 0.01 0.01 0.01 0.01 0.01 0.01 0.01 0.01 0.01 0.01 0.01 0.01 0.01 0.01 0.01 0.01 0.01 0.00 0.00 0.00 0.00 0.00 0.00
0.00 0.00 0.00 0.00 0.00 0.00 0.00 0.00 0.00 0.00 0.00 0.00 0.00 0.01 0.01 0.01 0.01 0.01 0.01 0.01 0.01 0.01 0.02 0.02 0.01 0.01 0.01 0.01 0.01 0.01 0.01 0.01 0.01 0.01 0.01 0.01 0.01 0.01 0.01 0.01 0.01 0.01 0.01
MSLP
1012.18 1012.70 1013.28 1013.89 1014.50 1015.10 1015.68 1016.23 1016.75 1017.24 1017.70 1018.11 1018.48 1018.81 1019.09 1019.33 1019.54 1019.72 1019.89 1020.06 1020.25 1020.45 1020.67 1020.89 1021.11 1021.30 1021.45 1021.54 1021.57 1021.53 1021.44 1021.31 1021.15 1020.99 1020.85 1020.72 1020.61 1020.53 1020.45 1020.38 1020.31 1020.24 1020.18
1012.33 1012.89 1013.50 1014.11 1014.71 1015.29 1015.85 1016.37 1016.88 1017.35 1017.81 1018.22 1018.60 1018.92 1019.18 1019.40 1019.57 1019.71 1019.85 1020.01 1020.19 1020.41 1020.66 1020.92 1021.18 1021.41 1021.59 1021.70 1021.74 1021.71 1021.61 1021.49 1021.33 1021.19 1021.05 1020.94 1020.84 1020.75 1020.67 1020.58 1020.49 1020.39 1020.29
1012.37 1012.98 1013.62 1014.25 1014.85 1015.42 1015.96 1016.48 1016.97 1017.45 1017.91 1018.33 1018.71 1019.03 1019.28 1019.47 1019.61 1019.72 1019.83 1019.96 1020.13 1020.35 1020.61 1020.89 1021.17 1021.42 1021.62 1021.75 1021.81 1021.79 1021.72 1021.61 1021.49 1021.37 1021.27 1021.19 1021.11 1021.04 1020.96 1020.85 1020.72 1020.57 1020.42
1012.29 1012.95 1013.63 1014.28 1014.90 1015.47 1016.00 1016.51 1017.01 1017.50 1017.97 1018.40 1018.79 1019.11 1019.36 1019.53 1019.65 1019.73 1019.80 1019.91 1020.05 1020.25 1020.50 1020.78 1021.07 1021.33 1021.55 1021.69 1021.77 1021.77 1021.73 1021.66 1021.59 1021.52 1021.48 1021.44 1021.41 1021.36 1021.28 1021.16 1021.00 1020.79 1020.57
1012.11 1012.82 1013.54 1014.22 1014.85 1015.42 1015.96 1016.47 1016.97 1017.46 1017.94 1018.39 1018.80 1019.13 1019.38 1019.54 1019.64 1019.70 1019.75 1019.83 1019.94 1020.12 1020.34 1020.61 1020.89 1021.15 1021.37 1021.52 1021.62 1021.65 1021.65 1021.63 1021.62 1021.62 1021.64 1021.66 1021.68 1021.66 1021.59 1021.46 1021.26 1021.01 1020.72
1011.91 1012.65 1013.40 1014.10 1014.74 1015.32 1015.85 1016.36 1016.86 1017.35 1017.84 1018.30 1018.71 1019.05 1019.32 1019.49 1019.59 1019.64 1019.67 1019.72 1019.81 1019.95 1020.15 1020.39 1020.65 1020.89 1021.11 1021.27 1021.39 1021.46 1021.50 1021.53 1021.57 1021.64 1021.71 1021.79 1021.85 1021.87 1021.82 1021.69 1021.46 1021.17 1020.82
1011.75 1012.52 1013.28 1013.99 1014.64 1015.21 1015.73 1016.22 1016.70 1017.18 1017.66 1018.12 1018.54 1018.90 1019.18 1019.37 1019.49 1019.54 1019.57 1019.61 1019.67 1019.79 1019.95 1020.16 1020.39 1020.61 1020.82 1020.99 1021.11 1021.21 1021.29 1021.36 1021.45 1021.56 1021.68 1021.80 1021.90 1021.94 1021.91 1021.77 1021.54 1021.22 1020.84
1011.73 1012.50 1013.26 1013.97 1014.59 1015.14 1015.64 1016.09 1016.54 1016.99 1017.45 1017.90 1018.32 1018.70 1018.99 1019.21 1019.35 1019.42 1019.47 1019.50 1019.56 1019.65 1019.79 1019.97 1020.17 1020.37 1020.55 1020.71 1020.84 1020.95 1021.04 1021.14 1021.25 1021.39 1021.53 1021.67 1021.79 1021.84 1021.82 1021.69 1021.46 1021.14 1020.74
1011.89 1012.64 1013.39 1014.07 1014.66 1015.17 1015.62 1016.03 1016.43 1016.84 1017.26 1017.69 1018.10 1018.48 1018.80 1019.04 1019.21 1019.32 1019.38 1019.44 1019.49 1019.58 1019.70 1019.84 1020.01 1020.18 1020.34 1020.48 1020.60 1020.70 1020.79 1020.89 1021.01 1021.13 1021.27 1021.41 1021.51 1021.57 1021.55 1021.43 1021.22 1020.91 1020.53
1012.23 1012.95 1013.66 1014.30 1014.85 1015.32 1015.72 1016.07 1016.42 1016.77 1017.15 1017.54 1017.93 1018.30 1018.63 1018.90 1019.10 1019.25 1019.35 1019.42 1019.50 1019.58 1019.69 1019.81 1019.94 1020.08 1020.21 1020.32 1020.41 1020.49 1020.56 1020.64 1020.72 1020.82 1020.93 1021.04 1021.12 1021.15 1021.12 1021.02 1020.82 1020.55 1020.21
1012.71 1013.39 1014.04 1014.64 1015.14 1015.56 1015.91 1016.21 1016.51 1016.81 1017.14 1017.49 1017.85 1018.21 1018.54 1018.83 1019.06 1019.24 1019.37 1019.48 1019.57 1019.66 1019.75 1019.85 1019.96 1020.06 1020.14 1020.22 1020.27 1020.31 1020.35 1020.39 1020.43 1020.49 1020.55 1020.60 1020.64 1020.65 1020.60 1020.49 1020.32 1020.09 1019.79
1013.22 1013.85 1014.46 1015.00 1015.47 1015.85 1016.16 1016.43 1016.69 1016.95 1017.24 1017.55 1017.88 1018.22 1018.54 1018.83 1019.09 1019.29 1019.46 1019.59 1019.70 1019.79 1019.88 1019.96 1020.03 1020.09 1020.13 1020.16 1020.17 1020.17 1020.16 1020.15 1020.15 1020.15 1020.15 1020.15 1020.14 1020.11 1020.04 1019.92 1019.76 1019.55 1019.30
1013.66 1014.25 1014.81 1015.32 1015.76 1016.12 1016.42 1016.68 1016.91 1017.15 1017.41 1017.70 1018.00 1018.31 1018.62 1018.91 1019.17 1019.40 1019.59 1019.74 1019.85 1019.95 1020.02 1020.07 1020.11 1020.13 1020.13 1020.11 1020.07 1020.03 1019.97 1019.92 1019.87 1019.82 1019.77 1019.72 1019.65 1019.57 1019.47 1019.34 1019.18 1018.98 1018.75
1013.95 1014.49 1015.03 1015.52 1015.95 1016.31 1016.62 1016.89 1017.14 1017.38 1017.63 1017.89 1018.17 1018.47 1018.76 1019.04 1019.29 1019.53 1019.72 1019.88 1020.00 1020.09 1020.15 1020.17 1020.17 1020.14 1020.09 1020.03 1019.95 1019.87 1019.78 1019.69 1019.60 1019.51 1019.41 1019.31 1019.21 1019.08 1018.94 1018.77 1018.59 1018.39 1018.16
1014.05 1014.56 1015.07 1015.55 1015.99 1016.38 1016.73 1017.03 1017.31 1017.57 1017.83 1018.09 1018.36 1018.63 1018.90 1019.17 1019.42 1019.64 1019.84 1019.99 1020.11 1020.19 1020.22 1020.22 1020.18 1020.11 1020.01 1019.91 1019.79 1019.67 1019.55 1019.43 1019.32 1019.20 1019.08 1018.94 1018.79 1018.62 1018.44 1018.23 1018.01 1017.78 1017.53
1013.95 1014.44 1014.94 1015.43 1015.89 1016.33 1016.72 1017.07 1017.40 1017.69 1017.97 1018.24 1018.50 1018.76 1019.02 1019.27 1019.50 1019.72 1019.90 1020.05 1020.16 1020.22 1020.23 1020.20 1020.12 1020.01 1019.87 1019.72 1019.57 1019.42 1019.28 1019.15 1019.02 1018.88 1018.74 1018.58 1018.39 1018.18 1017.95 1017.70 1017.44 1017.16 1016.87
1013.73 1014.21 1014.70 1015.20 1015.69 1016.16 1016.60 1017.01 1017.38 1017.72 1018.02 1018.31 1018.57 1018.82 1019.07 1019.30 1019.53 1019.73 1019.91 1020.05 1020.14 1020.19 1020.17 1020.11 1019.99 1019.84 1019.67 1019.48 1019.30 1019.13 1018.97 1018.82 1018.68 1018.53 1018.38 1018.20 1017.99 1017.74 1017.47 1017.17 1016.86 1016.53 1016.19
1013.48 1013.94 1014.43 1014.93 1015.44 1015.94 1016.42 1016.87 1017.28 1017.65 1017.98 1018.28 1018.55 1018.80 1019.04 1019.26 1019.47 1019.67 1019.84 1019.97 1020.06 1020.08 1020.05 1019.96 1019.81 1019.62 1019.41 1019.20 1018.98 1018.78 1018.60 1018.44 1018.29 1018.14 1017.97 1017.77 1017.54 1017.28 1016.97 1016.63 1016.27 1015.89 1015.51
1013.27 1013.72 1014.20 1014.69 1015.20 1015.71 1016.21 1016.68 1017.12 1017.51 1017.85 1018.16 1018.44 1018.69 1018.92 1019.14 1019.35 1019.54 1019.71 1019.84 1019.91 1019.93 1019.88 1019.76 1019.58 1019.36 1019.12 1018.87 1018.62 1018.39 1018.19 1018.01 1017.84 1017.68 1017.50 1017.29 1017.05 1016.76 1016.43 1016.07 1015.67 1015.26 1014.84
1013.16 1013.59 1014.04 1014.52 1015.02 1015.52 1016.01 1016.49 1016.92 1017.32 1017.67 1017.98 1018.26 1018.51 1018.75 1018.97 1019.18 1019.37 1019.53 1019.65 1019.72 1019.72 1019.65 1019.51 1019.31 1019.06 1018.79 1018.50 1018.22 1017.96 1017.73 1017.53 1017.34 1017.16 1016.96 1016.74 1016.49 1016.19 1015.85 1015.48 1015.07 1014.65 1014.21
1013.15 1013.55 1013.98 1014.43 1014.90 1015.37 1015.85 1016.30 1016.73 1017.12 1017.47 1017.77 1018.05 1018.30 1018.54 1018.76 1018.97 1019.15 1019.31 1019.43 1019.48 1019.47 1019.39 1019.23 1019.00 1018.72 1018.42 1018.10 1017.79 1017.49 1017.23 1017.00 1016.78 1016.57 1016.36 1016.13 1015.87 1015.57 1015.24 1014.87 1014.47 1014.05 1013.62
1013.19 1013.57 1013.97 1014.39 1014.82 1015.27 1015.71 1016.14 1016.55 1016.92 1017.26 1017.56 1017.84 1018.09 1018.32 1018.54 1018.74 1018.92 1019.07 1019.17 1019.21 1019.17 1019.07 1018.88 1018.63 1018.33 1017.99 1017.65 1017.30 1016.98 1016.69 1016.42 1016.18 1015.94 1015.71 1015.47 1015.21 1014.92 1014.60 1014.25 1013.87 1013.48 1013.06
1013.23 1013.59 1013.96 1014.36 1014.76 1015.18 1015.60 1016.01 1016.39 1016.75 1017.07 1017.37 1017.64 1017.89 1018.11 1018.32 1018.51 1018.67 1018.79 1018.87 1018.88 1018.82 1018.68 1018.47 1018.20 1017.87 1017.51 1017.14 1016.78 1016.43 1016.10 1015.81 1015.54 1015.28 1015.03 1014.78 1014.52 1014.24 1013.93 1013.61 1013.27 1012.91 1012.52
1013.19 1013.55 1013.91 1014.29 1014.68 1015.08 1015.48 1015.88 1016.25 1016.60 1016.91 1017.21 1017.47 1017.71 1017.92 1018.11 1018.28 1018.41 1018.49 1018.53 1018.49 1018.40 1018.22 1017.98 1017.68 1017.34 1016.96 1016.58 1016.20 1015.83 1015.49 1015.17 1014.87 1014.60 1014.33 1014.07 1013.81 1013.54 1013.26 1012.96 1012.66 1012.33 1011.97
1013.06 1013.41 1013.79 1014.17 1014.56 1014.96 1015.36 1015.74 1016.11 1016.46 1016.77 1017.06 1017.32 1017.54 1017.74 1017.90 1018.03 1018.11 1018.15 1018.13 1018.05 1017.90 1017.69 1017.41 1017.09 1016.73 1016.34 1015.95 1015.56 1015.19 1014.84 1014.51 1014.20 1013.91 1013.63 1013.36 1013.09 1012.83 1012.56 1012.29 1012.01 1011.71 1011.39
1012.83 1013.21 1013.60 1014.00 1014.41 1014.82 1015.22 1015.61 1015.98 1016.33 1016.64 1016.92 1017.17 1017.37 1017.54 1017.67 1017.75 1017.78 1017.75 1017.67 1017.53 1017.33 1017.07 1016.76 1016.41 1016.04 1015.65 1015.26 1014.88 1014.51 1014.16 1013.83 1013.52 1013.21 1012.93 1012.65 1012.38 1012.11 1011.85 1011.59 1011.33 1011.05 1010.74
Thickness
5610 5611 5613 5615 5617 5619 5621 5622 5623 5624 5625 5625 5623 5623 5623 5624 5625 5625 5625 5625 5624 5624 5623 5623 5621 5619 5617 5615 5614 5612 5610 5607 5606 5605 5602 5602 5602 5601 5600 5599 5597 5595 5594
5604 5606 5608 5610 5612 5614 5615 5616 5618 5619 5620 5621 5619 5619 5618 5617 5617 5617 5617 5617 5616 5615 5614 5614 5613 5611 5609 5607 5605 5603 5600 5598 5597 5595 5592 5589 5590 5591 5591 5588 5587 5585 5584
5602 5603 5604 5605 5607 5608 5610 5613 5613 5613 5614 5615 5614 5612 5610 5609 5609 5608 5608 5608 5608 5607 5606 5606 5604 5602 5600 5598 5596 5595 5593 5589 5587 5586 5584 5581 5579 5576 5578 5578 5577 5575 5573
5600 5600 5601 5601 5601 5604 5606 5608 5607 5607 5608 5608 5608 5607 5605 5603 5602 5602 5601 5600 5600 5598 5598 5597 5596 5594 5592 5589 5587 5586 5584 5582 5578 5576 5575 5572 5570 5567 5566 5566 5565 5564 5563
5597 5598 5598 5599 5599 5599 5600 5601 5601 5601 5601 5601 5601 5600 5599 5597 5595 5594 5592 5591 5590 5590 5589 5588 5587 5586 5583 5581 5579 5577 5575 5573 5570 5568 5565 5562 5559 5557 5555 5554 5553 5552 5552
5595 5595 5595 5595 5594 5593 5593 5593 5594 5595 5594 5594 5593 5593 5591 5590 5587 5585 5583 5582 5582 5580 5580 5580 5578 5576 5574 5572 5570 5568 5566 5564 5562 5559 5556 5553 5551 5548 5544 5542 5540 5540 5541
5592 5592 5591 5590 5590 5588 5587 5587 5588 5588 5588 5587 5586 5585 5584 5582 5580 5578 5575 5573 5572 5572 5571 5570 5569 5567 5565 5563 5561 5558 5556 5554 5552 5550 5547 5544 5542 5539 5535 5532 5530 5529 5530
5589 5590 5589 5587 5586 5584 5582 5582 5582 5582 5581 5580 5579 5578 5576 5574 5572 5570 5568 5566 5564 5564 5563 5561 5560 5558 5556 5553 5551 5549 5547 5545 5542 5540 5537 5534 5531 5529 5526 5522 5519 5517 5517
5585 5585 5584 5582 5580 5578 5577 5577 5576 5576 5575 5573 5571 5569 5568 5566 5563 5562 5560 5558 5557 5555 5553 5552 5550 5548 5546 5544 5541 5538 5536 5534 5532 5529 5526 5523 5521 5518 5515 5512 5509 5505 5505
5579 5579 5577 5575 5574 5573 5572 5571 5570 5569 5567 5565 5563 5562 5559 5557 5555 5553 5550 5548 5547 5545 5543 5542 5540 5538 5536 5534 5531 5528 5526 5523 5521 5519 5515 5512 5510 5507 5504 5501 5497 5494 5492
5574 5572 5571 5569 5568 5566 5565 5563 5562 5560 5558 5557 5555 5553 5550 5548 5545 5543 5541 5539 5537 5535 5533 5531 5529 5527 5525 5523 5521 5518 5516 5513 5510 5508 5505 5501 5499 5495 5492 5489 5485 5481 5478
5570 5567 5565 5562 5560 5559 5557 5555 5554 5552 5551 5549 5546 5543 5541 5538 5535 5533 5531 5529 5527 5525 5523 5521 5519 5517 5514 5512 5509 5507 5505 5502 5499 5496 5493 5490 5487 5484 5480 5477 5473 5470 5466
5564 5560 5558 5556 5554 5552 5550 5548 5546 5544 5542 5539 5536 5533 5530 5528 5526 5523 5521 5519 5517 5515 5512 5510 5508 5506 5503 5501 5499 5496 5493 5490 5488 5485 5481 5479 5475 5472 5468 5465 5461 5458 5454
5558 5554 5551 5549 5548 5545 5543 5541 5538 5536 5534 5530 5528 5525 5522 5519 5516 5514 5512 5509 5507 5504 5501 5499 5497 5494 5492 5489 5487 5484 5481 5478 5476 5473 5470 5466 5463 5460 5456 5453 5449 5444 5440
5551 5549 5546 5542 5540 5537 5535 5533 5531 5528 5526 5522 5519 5516 5513 5510 5507 5504 5501 5499 5496 5493 5490 5487 5485 5483 5480 5478 5475 5472 5469 5466 5464 5461 5458 5455 5451 5448 5444 5441 5436 5431 5426
5545 5543 5540 5536 5533 5530 5528 5525 5523 5520 5517 5513 5510 5506 5503 5500 5496 5494 5491 5488 5485 5482 5479 5476 5474 5470 5468 5466 5464 5460 5457 5454 5451 5449 5446 5442 5439 5436 5432 5429 5425 5419 5413
5538 5536 5533 5530 5527 5523 5521 5518 5515 5511 5507 5504 5500 5497 5493 5490 5487 5484 5480 5477 5474 5471 5468 5464 5461 5458 5456 5454 5452 5449 5445 5442 5439 5436 5432 5430 5427 5423 5419 5415 5412 5407 5402
5530 5527 5524 5521 5519 5515 5512 5509 5505 5501 5497 5494 5490 5487 5483 5479 5476 5472 5469 5465 5462 5459 5456 5453 5449 5446 5444 5442 5440 5437 5434 5430 5427 5423 5420 5416 5413 5409 5404 5401 5397 5393 5389
5521 5518 5516 5513 5509 5506 5502 5498 5494 5490 5486 5483 5480 5476 5473 5469 5465 5461 5458 5454 5451 5447 5444 5442 5438 5435 5433 5431 5428 5425 5421 5418 5415 5411 5407 5402 5399 5396 5391 5387 5383 5380 5376
5509 5507 5504 5501 5498 5495 5491 5487 5483 5479 5476 5473 5470 5466 5462 5458 5455 5451 5448 5444 5440 5437 5434 5430 5427 5424 5421 5419 5416 5413 5409 5405 5402 5399 5394 5390 5386 5382 5378 5372 5368 5365 5363
5498 5496 5493 5490 5487 5484 5480 5476 5472 5470 5467 5464 5460 5456 5452 5448 5445 5440 5437 5433 5429 5426 5422 5419 5417 5413 5409 5407 5404 5401 5396 5392 5389 5386 5382 5377 5373 5369 5365 5360 5355 5352 5349
5485 5483 5480 5478 5475 5472 5469 5466 5462 5461 5457 5453 5449 5445 5441 5437 5434 5429 5425 5421 5417 5413 5410 5406 5404 5401 5398 5395 5392 5389 5385 5381 5376 5373 5369 5365 5361 5357 5352 5348 5343 5340 5336
5472 5471 5468 5465 5463 5460 5457 5454 5453 5449 5445 5440 5436 5433 5429 5425 5422 5417 5413 5409 5404 5401 5397 5394 5392 5390 5387 5382 5380 5377 5373 5369 5364 5361 5357 5353 5348 5344 5340 5335 5331 5327 5322
5460 5458 5455 5453 5451 5448 5445 5444 5441 5438 5433 5429 5425 5421 5417 5414 5410 5406 5402 5398 5393 5389 5386 5382 5380 5378 5375 5370 5367 5364 5361 5357 5352 5348 5345 5341 5337 5332 5328 5324 5319 5314 5310
5447 5445 5443 5441 5440 5437 5434 5432 5430 5426 5422 5418 5414 5410 5406 5403 5399 5396 5392 5389 5385 5380 5376 5373 5369 5366 5364 5362 5358 5354 5350 5345 5341 5337 5333 5328 5324 5320 5316 5312 5308 5305 5301
5435 5433 5431 5429 5427 5425 5423 5421 5418 5415 5410 5406 5402 5398 5395 5391 5388 5384 5382 5380 5376 5372 5368 5364 5360 5357 5354 5352 5348 5344 5340 5336 5331 5327 5322 5317 5313 5310 5307 5304 5300 5296 5293